User: anonymous   Login
Location: Unspecified
(0.0000°N, 0.0000°E)
Time: 05:28:32
(UTC+00:00)
Language:

USA 112 - Orbit

View from above orbital plane
View from above orbital plane
View from above satellite
View from above satellite

Ground track
Ground track

The orbit data is extracted from the following two-line orbital elements,

1 23609U 95034A   17332.76725212 0.00000000  00000-0  00000-0 0    02
2 23609  63.1873 131.6036 6934881 265.5058  19.2435  2.00608000    00
Epoch (UTC): 28 November 2017 18:24:50
Eccentricity: 0.6934881
inclination: 63.1873°
perigee height: 1762 km
apogee height: 38594 km
right ascension of ascending node: 131.6036°
argument of perigee: 265.5058°
revolutions per day: 2.00608000
mean anomaly at epoch: 19.2435°
orbit number at epoch: 0

The dashed part of the orbit path shows where the satellite is in the earth's shadow,  

DLR